| time (UTC) | temp C | wind direction | speed KPH | gust KPH | rain 1hr cm | rain 24hr cm | rain mn cm | humidity % | barometer mb |
| 20260510224517 | 27 | 5 | 0.0 | 1.6 | 0.00 | 0.00 | 0.00 | 44 | 1013.8 |
| 20260510223017 | 28 | 231 | 0.0 | 4.8 | 0.00 | 0.00 | 0.00 | 34 | 1013.8 |
| 20260510221516 | 28 | 231 | 0.0 | 9.7 | 0.00 | 0.00 | 0.00 | 38 | 1013.8 |
| 20260510220016 | 28 | 265 | 0.0 | 9.7 | 0.00 | 0.00 | 0.00 | 33 | 1013.6 |
| 20260510214515 | 28 | 198 | 0.0 | 4.8 | 0.00 | 0.00 | 0.00 | 37 | 1013.6 |
| 20260510213015 | 28 | 327 | 0.0 | 4.8 | 0.00 | 0.00 | 0.00 | 37 | 1013.7 |
| 20260510211515 | 28 | 327 | 0.0 | 6.4 | 0.00 | 0.00 | 0.00 | 35 | 1013.6 |
| 20260510210016 | 28 | 305 | 1.6 | 6.4 | 0.00 | 0.00 | 0.00 | 34 | 1013.6 |
| 20260510204608 | 28 | 305 | 0.0 | 9.7 | 0.00 | 0.00 | 0.00 | 37 | 1013.7 |
| 20260510203028 | 28 | 303 | 0.0 | 9.7 | 0.00 | 0.00 | 0.00 | 38 | 1013.9 |
| 20260510201629 | 28 | 303 | 1.6 | 9.7 | 0.00 | 0.00 | 0.00 | 36 | 1013.9 |
| 20260510200052 | 28 | 25 | 3.2 | 9.7 | 0.00 | 0.00 | 0.00 | 30 | 1014.0 |
| 20260510194513 | 28 | 60 | 0.0 | 4.8 | 0.00 | 0.00 | 0.00 | 35 | 1014.0 |
| 20260510193110 | 28 | 309 | 0.0 | 8.0 | 0.00 | 0.00 | 0.00 | 38 | 1014.2 |
| 20260510191524 | 28 | 309 | 4.8 | 12.9 | 0.00 | 0.00 | 0.00 | 35 | 1014.3 |
| 20260510190130 | 28 | 246 | 1.6 | 8.0 | 0.00 | 0.00 | 0.00 | 38 | 1014.4 |
| 20260510184553 | 28 | 325 | 1.6 | 11.3 | 0.00 | 0.00 | 0.00 | 34 | 1014.6 |
| 20260510183010 | 28 | 317 | 0.0 | 11.3 | 0.00 | 0.00 | 0.00 | 35 | 1014.6 |
| 20260510181609 | 27 | 24 | 1.6 | 12.9 | 0.00 | 0.00 | 0.00 | 34 | 1014.5 |
| 20260510180013 | 28 | 131 | 0.0 | 11.3 | 0.00 | 0.00 | 0.00 | 43 | 1014.7 |
| 20260510173054 | 27 | 330 | 1.6 | 9.7 | 0.00 | 0.00 | 0.00 | 38 | 1015.1 |
| 20260510171516 | 28 | 15 | 1.6 | 11.3 | 0.00 | 0.00 | 0.00 | 38 | 1015.3 |
| 20260510170125 | 27 | 113 | 0.0 | 8.0 | 0.00 | 0.00 | 0.00 | 41 | 1015.4 |
| 20260510164538 | 27 | 265 | 0.0 | 4.8 | 0.00 | 0.00 | 0.00 | 38 | 1015.2 |
| 20260510163121 | 27 | 11 | 1.6 | 17.7 | 0.00 | 0.00 | 0.00 | 38 | 1015.3 |
| 20260510161539 | 27 | 80 | 3.2 | 9.7 | 0.00 | 0.00 | 0.00 | 44 | 1015.6 |
| 20260510160136 | 27 | 30 | 8.0 | 16.1 | 0.00 | 0.00 | 0.00 | 44 | 1015.5 |
| 20260510154551 | 26 | 32 | 3.2 | 11.3 | 0.00 | 0.00 | 0.00 | 45 | 1015.4 |
| 20260510153027 | 26 | 29 | 1.6 | 11.3 | 0.00 | 0.00 | 0.00 | 47 | 1015.4 |
| 20260510151530 | 26 | 22 | 4.8 | 11.3 | 0.00 | 0.00 | 0.00 | 49 | 1015.6 |
| 20260510150017 | 26 | 330 | 3.2 | 16.1 | 0.00 | 0.00 | 0.00 | 49 | 1015.7 |
| 20260510144512 | 25 | 22 | 1.6 | 11.3 | 0.00 | 0.00 | 0.00 | 59 | 1015.7 |
| 20260510143009 | 24 | 316 | 1.6 | 9.7 | 0.00 | 0.00 | 0.00 | 63 | 1015.6 |
| 20260510141504 | 23 | 329 | 0.0 | 9.7 | 0.00 | 0.00 | 0.00 | 65 | 1015.5 |
| 20260510140000 | 23 | 328 | 0.0 | 8.0 | 0.00 | 0.00 | 0.00 | 67 | 1015.4 |
| 20260510134557 | 22 | 23 | 1.6 | 11.3 | 0.00 | 0.00 | 0.00 | 70 | 1015.5 |
| 20260510133052 | 21 | 29 | 3.2 | 14.5 | 0.00 | 0.00 | 0.00 | 75 | 1015.6 |
| 20260510131547 | 19 | 30 | 3.2 | 11.3 | 0.00 | 0.00 | 0.00 | 90 | 1015.5 |
| 20260510130049 | 17 | 323 | 0.0 | 6.4 | 0.00 | 0.00 | 0.00 | 95 | 1015.5 |
| 20260510124555 | 17 | 257 | 0.0 | 6.4 | 0.00 | 0.03 | 0.00 | 96 | 1015.3 |
| 20260510123034 | 16 | 160 | 0.0 | 1.6 | 0.00 | 0.03 | 0.00 | 96 | 1015.1 |
| 20260510121535 | 14 | 160 | 0.0 | 1.6 | 0.00 | 0.03 | 0.00 | 95 | 1014.8 |
| 20260510120031 | 12 | 184 | 0.0 | 0.0 | 0.00 | 0.03 | 0.00 | 94 | 1014.6 |
| 20260510114523 | 12 | 194 | 0.0 | 0.0 | 0.00 | 0.03 | 0.00 | 93 | 1014.5 |
| 20260510113022 | 12 | 232 | 0.0 | 0.0 | 0.00 | 0.03 | 0.00 | 93 | 1014.2 |
| 20260510111523 | 11 | 117 | 0.0 | 0.0 | 0.00 | 0.03 | 0.00 | 93 | 1014.1 |
| 20260510110033 | 11 | 117 | 0.0 | 0.0 | 0.00 | 0.03 | 0.00 | 92 | 1014.0 |
| 20260510104514 | 11 | 212 | 0.0 | 0.0 | 0.00 | 0.03 | 0.00 | 92 | 1013.8 |
| 20260510103012 | 11 | 212 | 0.0 | 0.0 | 0.00 | 0.03 | 0.00 | 92 | 1013.5 |
| 20260510101511 | 12 | 212 | 0.0 | 0.0 | 0.00 | 0.03 | 0.00 | 92 | 1013.3 |
| 20260510100007 | 12 | 212 | 0.0 | 0.0 | 0.00 | 0.03 | 0.00 | 92 | 1013.2 |
| 20260510094507 | 12 | 212 | 0.0 | 0.0 | 0.00 | 0.03 | 0.00 | 92 | 1012.9 |
| 20260510093002 | 12 | 212 | 0.0 | 0.0 | 0.00 | 0.03 | 0.00 | 92 | 1012.8 |
| 20260510091600 | 12 | 212 | 0.0 | 0.0 | 0.00 | 0.03 | 0.00 | 92 | 1012.6 |
| 20260510090058 | 13 | 212 | 0.0 | 0.0 | 0.00 | 0.03 | 0.00 | 92 | 1012.5 |
| 20260510084555 | 13 | 212 | 0.0 | 0.0 | 0.00 | 0.03 | 0.00 | 92 | 1012.3 |
| 20260510083105 | 13 | 212 | 0.0 | 0.0 | 0.00 | 0.03 | 0.00 | 92 | 1012.2 |
| 20260510081552 | 13 | 212 | 0.0 | 0.0 | 0.00 | 0.03 | 0.00 | 92 | 1012.0 |
| 20260510080056 | 13 | 212 | 0.0 | 0.0 | 0.00 | 0.03 | 0.00 | 92 | 1012.0 |
| 20260510074550 | 13 | 212 | 0.0 | 0.0 | 0.00 | 0.03 | 0.00 | 92 | 1011.9 |
| 20260510073053 | 13 | 212 | 0.0 | 0.0 | 0.00 | 0.03 | 0.00 | 92 | 1011.9 |
| 20260510071548 | 13 | 212 | 0.0 | 0.0 | 0.00 | 0.03 | 0.00 | 92 | 1011.8 |
| 20260510070049 | 13 | 212 | 0.0 | 0.0 | 0.00 | 0.03 | 0.00 | 92 | 1011.7 |
| 20260510064546 | 13 | 212 | 0.0 | 0.0 | 0.00 | 0.03 | 0.00 | 92 | 1011.9 |
| 20260510063045 | 13 | 212 | 0.0 | 0.0 | 0.00 | 0.03 | 0.00 | 91 | 1011.8 |
| 20260510061546 | 13 | 212 | 0.0 | 0.0 | 0.00 | 0.03 | 0.00 | 91 | 1011.9 |
| 20260510060043 | 14 | 212 | 0.0 | 0.0 | 0.00 | 0.03 | 0.00 | 91 | 1011.8 |
| 20260510054542 | 14 | 212 | 0.0 | 0.0 | 0.00 | 0.03 | 0.00 | 91 | 1011.9 |
| 20260510053041 | 14 | 212 | 0.0 | 0.0 | 0.00 | 0.03 | 0.00 | 90 | 1011.7 |
| 20260510051539 | 14 | 212 | 0.0 | 0.0 | 0.00 | 0.03 | 0.00 | 90 | 1012.0 |
| 20260510050041 | 14 | 212 | 0.0 | 0.0 | 0.00 | 0.03 | 0.00 | 90 | 1012.1 |
| 20260510044538 | 15 | 212 | 0.0 | 0.0 | 0.00 | 0.03 | 0.00 | 90 | 1012.0 |
| 20260510043035 | 15 | 212 | 0.0 | 0.0 | 0.00 | 0.03 | 0.00 | 89 | 1012.2 |
| 20260510041633 | 15 | 212 | 0.0 | 0.0 | 0.00 | 0.03 | 0.00 | 89 | 1012.2 |
| 20260510040031 | 15 | 212 | 0.0 | 0.0 | 0.00 | 0.03 | 0.00 | 89 | 1012.2 |
| 20260510034530 | 15 | 212 | 0.0 | 0.0 | 0.00 | 0.03 | 0.03 | 89 | 1012.3 |
| 20260510033029 | 15 | 212 | 0.0 | 0.0 | 0.00 | 0.03 | 0.03 | 89 | 1012.2 |
| 20260510031529 | 15 | 212 | 0.0 | 0.0 | 0.00 | 0.03 | 0.03 | 88 | 1012.2 |
| 20260510030029 | 16 | 212 | 0.0 | 0.0 | 0.00 | 0.03 | 0.03 | 88 | 1012.2 |
| 20260510024528 | 16 | 212 | 0.0 | 0.0 | 0.00 | 0.03 | 0.03 | 88 | 1012.1 |
| 20260510023031 | 16 | 212 | 0.0 | 0.0 | 0.00 | 0.03 | 0.03 | 87 | 1012.1 |
| 20260510021531 | 16 | 212 | 0.0 | 0.0 | 0.00 | 0.03 | 0.03 | 87 | 1012.0 |
| 20260510020027 | 17 | 212 | 0.0 | 0.0 | 0.00 | 0.03 | 0.03 | 86 | 1011.9 |
| 20260510014527 | 17 | 212 | 0.0 | 0.0 | 0.00 | 0.03 | 0.03 | 85 | 1011.5 |
| 20260510013026 | 17 | 212 | 0.0 | 0.0 | 0.00 | 0.03 | 0.03 | 84 | 1011.4 |
| 20260510011526 | 18 | 212 | 0.0 | 0.0 | 0.00 | 0.03 | 0.03 | 83 | 1011.2 |
| 20260510010025 | 18 | 212 | 0.0 | 0.0 | 0.00 | 0.03 | 0.03 | 83 | 1011.0 |
| 20260510004525 | 19 | 212 | 0.0 | 0.0 | 0.00 | 0.03 | 0.03 | 82 | 1010.5 |
| 20260510003025 | 20 | 212 | 0.0 | 3.2 | 0.00 | 0.03 | 0.03 | 81 | 1010.4 |
| 20260510001524 | 20 | 212 | 0.0 | 6.4 | 0.00 | 0.03 | 0.03 | 81 | 1010.4 |
| 20260510000032 | 21 | 212 | 0.0 | 0.0 | 0.00 | 0.03 | 0.03 | 78 | 1010.2 |
| 20260509234536 | 21 | 212 | 0.0 | 0.0 | 0.00 | 0.03 | 0.03 | 77 | 1010.0 |
| 20260509233022 | 21 | 212 | 0.0 | 6.4 | 0.00 | 0.03 | 0.03 | 77 | 1010.1 |
| 20260509231522 | 22 | 212 | 0.0 | 4.8 | 0.00 | 0.03 | 0.03 | 75 | 1010.1 |
| 20260509230022 | 22 | 212 | 0.0 | 3.2 | 0.00 | 0.03 | 0.03 | 77 | 1009.9 |